GFSSW_prec_precacc12_237.txt.gz
Total_Precipitation_Accumulation
0.01 0.00 0.01 0.01 0.01 0.01 0.02 0.01 0.00 0.00 0.01 0.01 0.02 0.02 0.04 0.04 0.02 0.00 0.00 0.00 0.01 0.01 0.00 0.00 0.00 0.00 0.03 0.10 0.35 0.60 0.49 0.13 0.01 0.00 0.01 0.06 0.03 0.00 0.00 0.00 0.00 0.00 0.00 0.00 0.00
0.01 0.00 0.01 0.01 0.01 0.02 0.01 0.01 0.00 0.00 0.01 0.02 0.03 0.03 0.04 0.03 0.01 0.00 0.02 0.08 0.04 0.00 0.00 0.01 0.00 0.00 0.03 0.05 0.28 0.61 0.36 0.09 0.01 0.02 0.03 0.07 0.04 0.01 0.01 0.00 0.00 0.00 0.00 0.00 0.00
0.00 0.00 0.01 0.01 0.02 0.01 0.00 0.00 0.00 0.01 0.01 0.02 0.03 0.02 0.02 0.02 0.01 0.02 0.05 0.03 0.03 0.01 0.00 0.00 0.01 0.01 0.02 0.03 0.12 0.27 0.24 0.06 0.01 0.05 0.14 0.12 0.09 0.05 0.01 0.00 0.00 0.01 0.01 0.01 0.00
0.00 0.01 0.01 0.01 0.02 0.01 0.00 0.00 0.00 0.01 0.02 0.03 0.02 0.01 0.01 0.03 0.00 0.01 0.07 0.05 0.03 0.00 0.00 0.00 0.00 0.01 0.01 0.02 0.01 0.07 0.03 0.10 0.06 0.03 0.10 0.23 0.17 0.09 0.02 0.00 0.00 0.01 0.04 0.02 0.01
0.00 0.01 0.01 0.01 0.01 0.01 0.01 0.00 0.00 0.01 0.02 0.01 0.01 0.01 0.04 0.03 0.00 0.00 0.00 0.00 0.00 0.00 0.00 0.01 0.01 0.01 0.01 0.00 0.01 0.03 0.01 0.06 0.13 0.11 0.10 0.18 0.21 0.14 0.04 0.00 0.00 0.01 0.02 0.02 0.01
0.01 0.01 0.01 0.01 0.01 0.01 0.01 0.00 0.00 0.00 0.00 0.00 0.00 0.01 0.05 0.03 0.00 0.00 0.00 0.00 0.00 0.00 0.00 0.00 0.02 0.01 0.01 0.00 0.01 0.00 0.01 0.03 0.11 0.26 0.26 0.22 0.20 0.18 0.07 0.01 0.00 0.01 0.03 0.03 0.04
0.01 0.01 0.01 0.01 0.01 0.01 0.01 0.00 0.00 0.00 0.00 0.00 0.00 0.02 0.03 0.01 0.00 0.00 0.00 0.00 0.00 0.00 0.00 0.00 0.00 0.01 0.02 0.01 0.00 0.00 0.03 0.06 0.07 0.19 0.33 0.39 0.30 0.30 0.08 0.12 0.06 0.01 0.02 0.06 0.06
0.01 0.01 0.00 0.01 0.01 0.01 0.00 0.00 0.00 0.00 0.00 0.00 0.00 0.00 0.00 0.00 0.00 0.00 0.00 0.00 0.00 0.00 0.00 0.00 0.01 0.01 0.01 0.03 0.02 0.01 0.07 0.08 0.01 0.11 0.37 0.59 0.43 0.08 0.11 0.22 0.09 0.01 0.06 0.07 0.03
0.00 0.00 0.00 0.01 0.01 0.01 0.00 0.00 0.00 0.00 0.00 0.00 0.00 0.00 0.00 0.00 0.00 0.00 0.00 0.00 0.00 0.00 0.01 0.01 0.04 0.09 0.06 0.07 0.07 0.10 0.03 0.00 0.00 0.01 0.20 0.54 0.36 0.07 0.07 0.29 0.13 0.03 0.05 0.12 0.04
0.00 0.00 0.00 0.00 0.00 0.00 0.00 0.00 0.00 0.00 0.00 0.00 0.00 0.00 0.00 0.00 0.00 0.00 0.00 0.00 0.00 0.04 0.07 0.03 0.12 0.18 0.18 0.19 0.08 0.05 0.02 0.00 0.00 0.01 0.10 0.11 0.16 0.09 0.10 0.19 0.33 0.07 0.04 0.13 0.15
0.00 0.00 0.00 0.00 0.00 0.00 0.00 0.00 0.00 0.00 0.00 0.00 0.00 0.00 0.00 0.00 0.00 0.00 0.00 0.00 0.01 0.05 0.06 0.09 0.22 0.18 0.09 0.09 0.02 0.02 0.03 0.02 0.00 0.01 0.09 0.04 0.02 0.10 0.11 0.14 0.33 0.26 0.10 0.15 0.23
0.00 0.00 0.00 0.00 0.00 0.00 0.00 0.00 0.01 0.01 0.01 0.00 0.00 0.00 0.00 0.00 0.00 0.00 0.00 0.01 0.03 0.03 0.02 0.08 0.12 0.01 0.03 0.13 0.15 0.05 0.04 0.03 0.02 0.00 0.05 0.09 0.06 0.04 0.18 0.14 0.25 0.48 0.34 0.25 0.24
0.00 0.01 0.00 0.00 0.00 0.00 0.00 0.00 0.00 0.01 0.01 0.00 0.00 0.00 0.00 0.00 0.00 0.00 0.00 0.00 0.02 0.02 0.03 0.02 0.00 0.00 0.02 0.16 0.33 0.16 0.03 0.01 0.03 0.04 0.05 0.07 0.13 0.19 0.10 0.11 0.15 0.42 0.42 0.68 0.38
0.00 0.00 0.00 0.00 0.00 0.00 0.00 0.00 0.00 0.01 0.00 0.00 0.00 0.00 0.00 0.00 0.00 0.00 0.00 0.01 0.02 0.02 0.04 0.02 0.00 0.00 0.01 0.04 0.22 0.30 0.02 0.02 0.06 0.24 0.16 0.07 0.07 0.03 0.09 0.11 0.10 0.20 0.30 0.86 0.41
0.00 0.00 0.00 0.00 0.00 0.00 0.00 0.00 0.00 0.00 0.00 0.00 0.00 0.00 0.00 0.00 0.00 0.01 0.00 0.02 0.03 0.02 0.02 0.03 0.01 0.00 0.00 0.01 0.09 0.19 0.09 0.02 0.06 0.45 0.37 0.16 0.20 0.00 0.01 0.03 0.07 0.03 0.07 0.41 0.66
0.00 0.00 0.00 0.00 0.00 0.00 0.00 0.00 0.00 0.00 0.00 0.00 0.00 0.00 0.00 0.00 0.00 0.00 0.02 0.04 0.03 0.03 0.02 0.01 0.01 0.01 0.00 0.00 0.02 0.11 0.26 0.13 0.10 0.34 0.83 0.21 0.17 0.05 0.00 0.00 0.00 0.00 0.00 0.07 0.50
0.00 0.00 0.00 0.00 0.00 0.00 0.00 0.00 0.00 0.00 0.00 0.00 0.00 0.00 0.00 0.00 0.00 0.00 0.02 0.16 0.09 0.10 0.06 0.02 0.01 0.00 0.03 0.01 0.02 0.11 0.35 0.45 0.35 0.41 0.41 0.10 0.22 0.07 0.00 0.00 0.00 0.00 0.00 0.00 0.18
0.00 0.00 0.00 0.00 0.00 0.00 0.00 0.00 0.00 0.00 0.00 0.00 0.00 0.00 0.00 0.00 0.00 0.00 0.01 0.12 0.11 0.16 0.11 0.04 0.03 0.01 0.03 0.02 0.03 0.05 0.14 0.33 0.25 0.07 0.03 0.08 0.30 0.00 0.00 0.00 0.00 0.00 0.00 0.00 0.04
0.00 0.00 0.00 0.00 0.00 0.00 0.00 0.00 0.00 0.00 0.00 0.00 0.00 0.00 0.00 0.00 0.00 0.00 0.02 0.14 0.21 0.31 0.28 0.07 0.06 0.03 0.00 0.01 0.02 0.08 0.10 0.07 0.32 0.09 0.04 0.02 0.01 0.00 0.00 0.00 0.00 0.00 0.00 0.00 0.01
0.00 0.00 0.00 0.00 0.00 0.00 0.00 0.00 0.00 0.00 0.00 0.01 0.02 0.01 0.01 0.00 0.00 0.01 0.05 0.13 0.28 0.27 0.38 0.28 0.23 0.06 0.09 0.05 0.06 0.09 0.04 0.08 0.19 0.40 0.13 0.01 0.00 0.00 0.00 0.00 0.00 0.00 0.00 0.00 0.00
0.00 0.00 0.00 0.00 0.00 0.00 0.00 0.00 0.00 0.00 0.00 0.01 0.01 0.03 0.02 0.01 0.00 0.01 0.02 0.05 0.10 0.09 0.18 0.30 0.23 0.18 0.13 0.02 0.03 0.09 0.22 0.03 0.03 0.18 0.21 0.06 0.02 0.00 0.00 0.00 0.00 0.00 0.00 0.00 0.00
0.00 0.00 0.00 0.00 0.00 0.00 0.00 0.00 0.00 0.00 0.00 0.00 0.01 0.03 0.04 0.00 0.00 0.01 0.01 0.01 0.00 0.05 0.17 0.27 0.26 0.21 0.12 0.04 0.01 0.02 0.05 0.03 0.04 0.10 0.13 0.12 0.04 0.00 0.00 0.00 0.00 0.00 0.00 0.00 0.01
0.00 0.00 0.00 0.00 0.00 0.00 0.00 0.00 0.00 0.00 0.00 0.00 0.00 0.02 0.01 0.00 0.00 0.00 0.00 0.00 0.00 0.00 0.26 0.47 0.39 0.29 0.41 0.27 0.07 0.06 0.05 0.07 0.03 0.06 0.14 0.17 0.02 0.00 0.00 0.00 0.00 0.00 0.00 0.02 0.02
0.00 0.00 0.00 0.00 0.00 0.00 0.00 0.00 0.00 0.00 0.00 0.00 0.00 0.00 0.00 0.00 0.00 0.00 0.00 0.00 0.00 0.01 0.12 0.30 0.35 0.23 0.26 0.23 0.13 0.07 0.04 0.09 0.09 0.09 0.12 0.09 0.00 0.00 0.00 0.00 0.00 0.00 0.00 0.04 0.06
0.00 0.00 0.00 0.00 0.00 0.00 0.00 0.00 0.00 0.00 0.00 0.00 0.00 0.00 0.00 0.00 0.00 0.00 0.00 0.00 0.00 0.00 0.01 0.07 0.17 0.12 0.03 0.01 0.02 0.02 0.02 0.06 0.11 0.05 0.05 0.04 0.01 0.00 0.00 0.00 0.00 0.00 0.00 0.01 0.05
0.00 0.00 0.00 0.00 0.00 0.00 0.00 0.00 0.00 0.00 0.00 0.00 0.00 0.00 0.00 0.00 0.00 0.00 0.01 0.01 0.01 0.00 0.00 0.02 0.09 0.11 0.17 0.02 0.05 0.05 0.13 0.12 0.14 0.06 0.01 0.01 0.01 0.00 0.00 0.00 0.00 0.00 0.00 0.00 0.01
0.00 0.00 0.00 0.00 0.00 0.00 0.00 0.00 0.00 0.00 0.00 0.00 0.00 0.00 0.00 0.00 0.00 0.00 0.00 0.00 0.01 0.04 0.06 0.02 0.11 0.15 0.31 0.16 0.26 0.43 0.46 0.21 0.14 0.11 0.01 0.01 0.01 0.00 0.00 0.00 0.00 0.00 0.00 0.00 0.00

GFSSW_prec_precacc12_243.txt.gz
Total_Precipitation_Accumulation
0.00 0.00 0.00 0.00 0.00 0.00 0.00 0.00 0.00 0.00 0.01 0.01 0.01 0.02 0.03 0.02 0.00 0.00 0.00 0.00 0.01 0.05 0.04 0.00 0.00 0.00 0.02 0.06 0.21 0.47 0.40 0.12 0.04 0.02 0.01 0.04 0.03 0.02 0.00 0.00 0.00 0.00 0.00 0.07 0.23
0.00 0.00 0.00 0.00 0.00 0.00 0.00 0.00 0.00 0.00 0.01 0.01 0.02 0.03 0.02 0.02 0.00 0.00 0.01 0.02 0.04 0.09 0.01 0.00 0.00 0.00 0.01 0.04 0.19 0.36 0.20 0.07 0.02 0.02 0.03 0.10 0.07 0.06 0.04 0.00 0.00 0.01 0.03 0.18 0.19
0.00 0.00 0.00 0.01 0.00 0.00 0.00 0.00 0.00 0.00 0.01 0.02 0.02 0.01 0.02 0.00 0.00 0.01 0.00 0.00 0.06 0.03 0.00 0.00 0.01 0.03 0.02 0.02 0.11 0.20 0.07 0.03 0.02 0.05 0.14 0.19 0.26 0.11 0.06 0.01 0.01 0.06 0.15 0.17 0.20
0.00 0.00 0.00 0.00 0.00 0.00 0.00 0.00 0.00 0.00 0.01 0.01 0.00 0.01 0.01 0.00 0.00 0.00 0.01 0.04 0.03 0.00 0.00 0.00 0.00 0.05 0.04 0.02 0.03 0.10 0.04 0.06 0.05 0.08 0.15 0.23 0.41 0.25 0.09 0.02 0.00 0.11 0.28 0.25 0.19
0.00 0.00 0.00 0.00 0.00 0.00 0.00 0.00 0.00 0.00 0.00 0.00 0.01 0.00 0.01 0.01 0.00 0.00 0.00 0.00 0.00 0.00 0.00 0.00 0.02 0.03 0.06 0.02 0.03 0.03 0.02 0.05 0.05 0.11 0.17 0.30 0.32 0.47 0.24 0.04 0.00 0.08 0.22 0.25 0.31
0.00 0.00 0.00 0.00 0.00 0.00 0.00 0.00 0.00 0.00 0.00 0.00 0.00 0.00 0.01 0.01 0.00 0.00 0.00 0.00 0.00 0.00 0.00 0.00 0.02 0.03 0.02 0.01 0.03 0.01 0.00 0.00 0.01 0.05 0.14 0.34 0.34 0.42 0.38 0.16 0.01 0.02 0.13 0.20 0.25
0.00 0.00 0.00 0.00 0.00 0.00 0.00 0.00 0.00 0.00 0.00 0.00 0.00 0.00 0.00 0.00 0.00 0.00 0.00 0.00 0.00 0.00 0.00 0.01 0.00 0.02 0.01 0.01 0.00 0.00 0.01 0.01 0.00 0.01 0.10 0.27 0.33 0.45 0.28 0.52 0.13 0.01 0.07 0.16 0.23
0.00 0.00 0.00 0.00 0.00 0.00 0.00 0.00 0.00 0.00 0.00 0.00 0.00 0.00 0.00 0.00 0.00 0.00 0.00 0.00 0.00 0.00 0.01 0.03 0.00 0.00 0.00 0.00 0.00 0.01 0.05 0.03 0.00 0.02 0.12 0.31 0.27 0.07 0.16 0.56 0.42 0.05 0.09 0.13 0.12
0.00 0.00 0.00 0.00 0.00 0.00 0.00 0.00 0.00 0.00 0.00 0.00 0.00 0.00 0.00 0.00 0.00 0.00 0.00 0.00 0.00 0.00 0.03 0.01 0.02 0.04 0.03 0.02 0.02 0.07 0.04 0.00 0.00 0.00 0.11 0.14 0.09 0.07 0.09 0.41 0.56 0.20 0.06 0.19 0.13
0.00 0.00 0.00 0.00 0.00 0.00 0.00 0.00 0.00 0.00 0.00 0.00 0.00 0.00 0.00 0.00 0.00 0.00 0.00 0.00 0.00 0.01 0.05 0.02 0.03 0.05 0.03 0.12 0.03 0.02 0.02 0.00 0.00 0.00 0.03 0.05 0.00 0.03 0.08 0.19 0.53 0.40 0.08 0.16 0.21
0.00 0.00 0.00 0.00 0.00 0.00 0.00 0.00 0.00 0.00 0.00 0.00 0.00 0.00 0.00 0.00 0.00 0.00 0.00 0.00 0.00 0.01 0.03 0.08 0.18 0.06 0.01 0.02 0.01 0.01 0.03 0.04 0.00 0.00 0.01 0.02 0.03 0.03 0.08 0.15 0.41 0.52 0.25 0.15 0.29
0.00 0.00 0.00 0.00 0.00 0.00 0.00 0.00 0.00 0.00 0.00 0.00 0.00 0.00 0.00 0.00 0.00 0.00 0.00 0.01 0.03 0.02 0.02 0.05 0.10 0.01 0.00 0.03 0.05 0.01 0.02 0.02 0.01 0.00 0.01 0.04 0.03 0.02 0.06 0.09 0.24 0.58 0.60 0.32 0.27
0.00 0.00 0.00 0.00 0.00 0.00 0.00 0.00 0.00 0.00 0.00 0.00 0.00 0.00 0.00 0.00 0.00 0.00 0.00 0.00 0.01 0.01 0.02 0.01 0.00 0.00 0.01 0.03 0.16 0.09 0.01 0.00 0.02 0.00 0.00 0.01 0.06 0.10 0.06 0.08 0.16 0.44 0.73 0.85 0.57
0.00 0.00 0.00 0.00 0.00 0.00 0.00 0.00 0.00 0.00 0.00 0.00 0.00 0.00 0.00 0.00 0.00 0.00 0.00 0.00 0.01 0.01 0.02 0.02 0.00 0.00 0.00 0.00 0.05 0.11 0.01 0.00 0.02 0.16 0.07 0.01 0.01 0.01 0.04 0.05 0.09 0.17 0.40 1.04 0.51
0.00 0.00 0.00 0.00 0.00 0.00 0.00 0.00 0.00 0.00 0.00 0.00 0.00 0.00 0.00 0.00 0.00 0.00 0.00 0.01 0.01 0.01 0.01 0.01 0.01 0.00 0.00 0.00 0.01 0.03 0.07 0.03 0.03 0.34 0.26 0.04 0.03 0.00 0.01 0.01 0.04 0.03 0.07 0.53 0.72
0.00 0.00 0.00 0.00 0.00 0.00 0.00 0.00 0.00 0.00 0.00 0.00 0.00 0.00 0.00 0.00 0.00 0.00 0.00 0.01 0.01 0.00 0.00 0.00 0.00 0.00 0.00 0.00 0.00 0.04 0.06 0.06 0.03 0.18 0.46 0.15 0.03 0.01 0.00 0.00 0.00 0.00 0.00 0.10 0.55
0.00 0.00 0.00 0.00 0.00 0.00 0.00 0.00 0.00 0.00 0.00 0.00 0.00 0.00 0.00 0.00 0.00 0.00 0.01 0.13 0.06 0.04 0.02 0.01 0.01 0.00 0.00 0.00 0.01 0.06 0.04 0.10 0.07 0.12 0.23 0.14 0.15 0.01 0.00 0.00 0.00 0.00 0.00 0.01 0.19
0.00 0.00 0.00 0.00 0.00 0.00 0.00 0.00 0.00 0.00 0.00 0.00 0.00 0.00 0.00 0.00 0.00 0.00 0.00 0.10 0.05 0.02 0.03 0.02 0.01 0.01 0.00 0.00 0.00 0.04 0.05 0.13 0.08 0.03 0.01 0.07 0.23 0.00 0.00 0.00 0.00 0.00 0.00 0.00 0.02
0.00 0.00 0.00 0.00 0.00 0.00 0.00 0.00 0.00 0.00 0.00 0.00 0.00 0.00 0.00 0.00 0.00 0.00 0.01 0.07 0.08 0.04 0.08 0.03 0.02 0.03 0.00 0.00 0.00 0.02 0.07 0.06 0.23 0.05 0.02 0.01 0.01 0.00 0.00 0.00 0.00 0.00 0.00 0.00 0.00
0.00 0.00 0.00 0.00 0.00 0.00 0.00 0.00 0.00 0.00 0.00 0.00 0.00 0.00 0.00 0.00 0.00 0.00 0.00 0.03 0.04 0.02 0.10 0.08 0.13 0.06 0.11 0.01 0.01 0.01 0.02 0.07 0.15 0.23 0.04 0.00 0.00 0.00 0.00 0.00 0.00 0.00 0.00 0.00 0.00
0.00 0.00 0.00 0.00 0.00 0.00 0.00 0.00 0.00 0.00 0.00 0.00 0.00 0.00 0.01 0.00 0.00 0.00 0.00 0.01 0.01 0.00 0.02 0.11 0.15 0.03 0.08 0.02 0.01 0.02 0.08 0.04 0.03 0.16 0.12 0.03 0.01 0.00 0.00 0.00 0.00 0.00 0.00 0.00 0.00
0.00 0.00 0.00 0.00 0.00 0.00 0.00 0.00 0.00 0.00 0.00 0.00 0.00 0.00 0.00 0.00 0.00 0.00 0.00 0.01 0.00 0.00 0.00 0.07 0.09 0.04 0.09 0.05 0.02 0.01 0.03 0.02 0.04 0.07 0.13 0.09 0.02 0.00 0.00 0.00 0.00 0.00 0.00 0.00 0.01
0.00 0.00 0.00 0.00 0.00 0.00 0.00 0.00 0.00 0.00 0.00 0.00 0.00 0.00 0.00 0.00 0.00 0.00 0.00 0.00 0.00 0.00 0.02 0.09 0.08 0.09 0.19 0.30 0.09 0.02 0.02 0.02 0.07 0.07 0.15 0.19 0.03 0.00 0.00 0.00 0.00 0.00 0.00 0.02 0.02
0.00 0.00 0.00 0.00 0.00 0.00 0.00 0.00 0.00 0.00 0.00 0.00 0.00 0.00 0.00 0.00 0.00 0.00 0.00 0.00 0.00 0.00 0.01 0.06 0.08 0.13 0.17 0.20 0.16 0.02 0.02 0.01 0.07 0.09 0.12 0.14 0.02 0.00 0.00 0.00 0.01 0.00 0.01 0.09 0.11
0.00 0.00 0.00 0.00 0.00 0.00 0.00 0.00 0.00 0.00 0.00 0.00 0.00 0.00 0.00 0.00 0.00 0.00 0.00 0.00 0.00 0.00 0.00 0.02 0.02 0.02 0.00 0.01 0.08 0.04 0.01 0.01 0.02 0.09 0.12 0.07 0.12 0.01 0.01 0.00 0.01 0.02 0.03 0.07 0.12
0.00 0.00 0.00 0.00 0.00 0.00 0.00 0.00 0.00 0.00 0.00 0.00 0.00 0.00 0.00 0.00 0.00 0.00 0.00 0.00 0.00 0.00 0.00 0.01 0.02 0.01 0.02 0.05 0.08 0.07 0.06 0.08 0.08 0.09 0.02 0.05 0.10 0.04 0.01 0.00 0.00 0.02 0.03 0.06 0.06
0.00 0.00 0.00 0.00 0.00 0.00 0.00 0.00 0.00 0.00 0.00 0.00 0.00 0.00 0.00 0.00 0.00 0.00 0.00 0.00 0.00 0.02 0.05 0.01 0.06 0.05 0.06 0.10 0.31 0.22 0.26 0.21 0.10 0.15 0.02 0.02 0.03 0.03 0.01 0.00 0.00 0.00 0.00 0.01 0.02

GFSSW_prec_precacc12_246.txt.gz
Total_Precipitation_Accumulation
0.00 0.00 0.00 0.00 0.00 0.00 0.00 0.00 0.00 0.00 0.01 0.01 0.01 0.02 0.02 0.02 0.00 0.00 0.00 0.01 0.07 0.13 0.05 0.00 0.00 0.00 0.01 0.01 0.11 0.36 0.33 0.19 0.10 0.03 0.01 0.03 0.04 0.03 0.01 0.00 0.00 0.00 0.01 0.14 0.26
0.00 0.00 0.00 0.00 0.00 0.00 0.00 0.00 0.00 0.00 0.00 0.00 0.01 0.01 0.01 0.01 0.00 0.00 0.01 0.04 0.06 0.11 0.00 0.00 0.00 0.00 0.01 0.02 0.10 0.27 0.16 0.07 0.02 0.02 0.05 0.14 0.12 0.12 0.05 0.00 0.00 0.01 0.05 0.40 0.37
0.00 0.00 0.00 0.00 0.00 0.00 0.00 0.00 0.00 0.00 0.00 0.01 0.01 0.00 0.01 0.00 0.00 0.01 0.00 0.00 0.06 0.03 0.00 0.00 0.01 0.03 0.02 0.03 0.08 0.14 0.07 0.03 0.02 0.04 0.12 0.21 0.33 0.20 0.11 0.03 0.01 0.06 0.17 0.38 0.42
0.00 0.00 0.00 0.00 0.00 0.00 0.00 0.00 0.00 0.00 0.00 0.01 0.00 0.01 0.00 0.00 0.00 0.00 0.00 0.00 0.02 0.00 0.00 0.00 0.00 0.06 0.06 0.03 0.03 0.11 0.04 0.06 0.05 0.09 0.16 0.16 0.44 0.29 0.14 0.04 0.00 0.11 0.29 0.38 0.45
0.00 0.00 0.00 0.00 0.00 0.00 0.00 0.00 0.00 0.00 0.00 0.00 0.00 0.00 0.01 0.00 0.00 0.00 0.00 0.00 0.00 0.00 0.00 0.00 0.02 0.03 0.13 0.07 0.04 0.05 0.02 0.09 0.09 0.14 0.19 0.27 0.31 0.57 0.31 0.07 0.00 0.08 0.25 0.35 0.51
0.00 0.00 0.00 0.00 0.00 0.00 0.00 0.00 0.00 0.00 0.00 0.00 0.00 0.00 0.00 0.00 0.00 0.00 0.00 0.00 0.00 0.00 0.00 0.00 0.04 0.05 0.09 0.12 0.06 0.03 0.01 0.01 0.04 0.10 0.16 0.31 0.28 0.51 0.46 0.20 0.02 0.02 0.18 0.31 0.43
0.00 0.00 0.00 0.00 0.00 0.00 0.00 0.00 0.00 0.00 0.00 0.00 0.00 0.00 0.00 0.00 0.00 0.00 0.00 0.00 0.00 0.00 0.00 0.01 0.02 0.02 0.02 0.09 0.02 0.01 0.03 0.02 0.00 0.01 0.07 0.21 0.26 0.45 0.41 0.68 0.15 0.02 0.12 0.23 0.39
0.00 0.00 0.00 0.00 0.00 0.00 0.00 0.00 0.00 0.00 0.00 0.00 0.00 0.00 0.00 0.00 0.00 0.00 0.00 0.00 0.00 0.00 0.01 0.04 0.01 0.00 0.00 0.01 0.01 0.02 0.06 0.07 0.00 0.00 0.05 0.21 0.11 0.06 0.30 0.86 0.47 0.06 0.13 0.20 0.24
0.00 0.00 0.00 0.00 0.00 0.00 0.00 0.00 0.00 0.00 0.00 0.00 0.00 0.00 0.00 0.00 0.00 0.00 0.00 0.00 0.00 0.00 0.02 0.01 0.01 0.01 0.02 0.01 0.01 0.03 0.06 0.02 0.02 0.00 0.06 0.09 0.04 0.03 0.14 0.65 0.70 0.20 0.09 0.23 0.21
0.00 0.00 0.00 0.00 0.00 0.00 0.00 0.00 0.00 0.00 0.00 0.00 0.00 0.00 0.00 0.00 0.00 0.00 0.00 0.00 0.00 0.00 0.01 0.01 0.00 0.01 0.01 0.09 0.03 0.01 0.04 0.04 0.01 0.00 0.02 0.04 0.02 0.04 0.06 0.28 0.61 0.43 0.11 0.19 0.23
0.00 0.00 0.00 0.00 0.00 0.00 0.00 0.00 0.00 0.00 0.00 0.00 0.00 0.00 0.00 0.00 0.00 0.00 0.00 0.00 0.00 0.00 0.00 0.04 0.12 0.03 0.00 0.02 0.03 0.00 0.02 0.04 0.00 0.00 0.00 0.01 0.03 0.04 0.06 0.16 0.47 0.58 0.28 0.17 0.31
0.00 0.00 0.00 0.00 0.00 0.00 0.00 0.00 0.00 0.00 0.00 0.00 0.00 0.00 0.00 0.00 0.00 0.00 0.00 0.00 0.00 0.01 0.01 0.03 0.05 0.01 0.00 0.01 0.01 0.00 0.00 0.00 0.01 0.00 0.00 0.01 0.01 0.03 0.04 0.07 0.25 0.50 0.54 0.32 0.32
0.00 0.00 0.00 0.00 0.00 0.00 0.00 0.00 0.00 0.00 0.00 0.00 0.00 0.00 0.00 0.00 0.00 0.00 0.00 0.00 0.00 0.00 0.01 0.00 0.00 0.00 0.00 0.03 0.07 0.03 0.00 0.00 0.00 0.00 0.00 0.01 0.03 0.08 0.05 0.05 0.07 0.26 0.56 0.67 0.58
0.00 0.00 0.00 0.00 0.00 0.00 0.00 0.00 0.00 0.00 0.00 0.00 0.00 0.00 0.00 0.00 0.00 0.00 0.00 0.00 0.00 0.00 0.00 0.00 0.00 0.00 0.00 0.00 0.03 0.05 0.01 0.00 0.00 0.06 0.05 0.01 0.01 0.01 0.03 0.01 0.01 0.02 0.23 0.51 0.48
0.00 0.00 0.00 0.00 0.00 0.00 0.00 0.00 0.00 0.00 0.00 0.00 0.00 0.00 0.00 0.00 0.00 0.00 0.00 0.00 0.00 0.00 0.00 0.00 0.00 0.00 0.00 0.00 0.00 0.01 0.06 0.03 0.02 0.23 0.10 0.01 0.01 0.00 0.00 0.01 0.00 0.00 0.03 0.22 0.57
0.00 0.00 0.00 0.00 0.00 0.00 0.00 0.00 0.00 0.00 0.00 0.00 0.00 0.00 0.00 0.00 0.00 0.00 0.00 0.01 0.00 0.00 0.00 0.00 0.00 0.00 0.00 0.00 0.00 0.04 0.07 0.06 0.04 0.14 0.26 0.02 0.02 0.00 0.00 0.00 0.00 0.00 0.00 0.05 0.41
0.00 0.00 0.00 0.00 0.00 0.00 0.00 0.00 0.00 0.00 0.00 0.00 0.00 0.00 0.00 0.00 0.00 0.00 0.01 0.08 0.01 0.00 0.00 0.00 0.00 0.00 0.00 0.00 0.02 0.06 0.07 0.13 0.06 0.09 0.10 0.08 0.08 0.01 0.00 0.00 0.00 0.00 0.00 0.01 0.19
0.00 0.00 0.00 0.00 0.00 0.00 0.00 0.00 0.00 0.00 0.00 0.00 0.00 0.00 0.00 0.00 0.00 0.00 0.00 0.03 0.01 0.00 0.00 0.00 0.00 0.01 0.00 0.00 0.00 0.06 0.11 0.07 0.02 0.02 0.00 0.03 0.11 0.00 0.00 0.00 0.00 0.00 0.00 0.00 0.02
0.00 0.00 0.00 0.00 0.00 0.00 0.00 0.00 0.00 0.00 0.00 0.00 0.00 0.00 0.00 0.00 0.00 0.00 0.01 0.03 0.04 0.01 0.02 0.01 0.00 0.02 0.00 0.00 0.00 0.01 0.05 0.12 0.03 0.00 0.00 0.00 0.01 0.00 0.00 0.00 0.00 0.00 0.00 0.00 0.00
0.00 0.00 0.00 0.00 0.00 0.00 0.00 0.00 0.00 0.00 0.00 0.00 0.00 0.00 0.00 0.00 0.00 0.00 0.00 0.02 0.02 0.00 0.01 0.03 0.08 0.04 0.10 0.01 0.00 0.01 0.01 0.08 0.04 0.01 0.01 0.00 0.01 0.00 0.00 0.00 0.00 0.00 0.00 0.00 0.00
0.00 0.00 0.00 0.00 0.00 0.00 0.00 0.00 0.00 0.00 0.00 0.00 0.00 0.00 0.00 0.00 0.00 0.00 0.00 0.00 0.00 0.00 0.00 0.03 0.10 0.02 0.07 0.04 0.00 0.01 0.03 0.04 0.05 0.04 0.06 0.02 0.00 0.00 0.00 0.00 0.00 0.00 0.00 0.00 0.00
0.00 0.00 0.00 0.00 0.00 0.00 0.00 0.00 0.00 0.00 0.00 0.00 0.00 0.00 0.00 0.00 0.00 0.00 0.00 0.00 0.00 0.00 0.00 0.02 0.07 0.03 0.09 0.07 0.02 0.01 0.02 0.02 0.08 0.06 0.14 0.08 0.01 0.00 0.00 0.00 0.00 0.00 0.00 0.00 0.01
0.00 0.00 0.00 0.00 0.00 0.00 0.00 0.00 0.00 0.00 0.00 0.00 0.00 0.00 0.00 0.00 0.00 0.00 0.00 0.00 0.00 0.00 0.01 0.04 0.04 0.03 0.12 0.32 0.10 0.01 0.01 0.03 0.12 0.15 0.18 0.19 0.02 0.00 0.00 0.00 0.00 0.00 0.00 0.02 0.03
0.00 0.00 0.00 0.00 0.00 0.00 0.00 0.00 0.00 0.00 0.00 0.00 0.00 0.00 0.00 0.00 0.00 0.00 0.00 0.00 0.00 0.00 0.01 0.01 0.02 0.07 0.06 0.09 0.16 0.02 0.02 0.02 0.08 0.13 0.20 0.15 0.02 0.00 0.00 0.00 0.01 0.01 0.02 0.09 0.12
0.00 0.00 0.00 0.00 0.00 0.00 0.00 0.00 0.00 0.00 0.00 0.00 0.00 0.00 0.00 0.00 0.00 0.00 0.00 0.00 0.00 0.00 0.00 0.01 0.01 0.00 0.00 0.04 0.09 0.05 0.01 0.01 0.02 0.09 0.15 0.11 0.14 0.02 0.02 0.00 0.01 0.03 0.04 0.08 0.15
0.00 0.00 0.00 0.00 0.00 0.00 0.00 0.00 0.00 0.00 0.00 0.00 0.00 0.00 0.00 0.00 0.00 0.00 0.00 0.00 0.00 0.00 0.00 0.01 0.01 0.01 0.00 0.07 0.09 0.07 0.04 0.07 0.08 0.09 0.03 0.07 0.13 0.06 0.04 0.00 0.00 0.07 0.09 0.09 0.09
0.00 0.00 0.00 0.00 0.00 0.00 0.00 0.00 0.00 0.00 0.00 0.00 0.00 0.00 0.00 0.00 0.00 0.00 0.00 0.00 0.00 0.02 0.03 0.01 0.05 0.03 0.01 0.07 0.28 0.15 0.21 0.20 0.08 0.15 0.05 0.05 0.06 0.05 0.03 0.01 0.00 0.07 0.11 0.05 0.05

GFSSW_prec_precacc12_249.txt.gz
Total_Precipitation_Accumulation
0.00 0.00 0.00 0.00 0.00 0.00 0.00 0.00 0.00 0.00 0.00 0.00 0.00 0.01 0.01 0.00 0.00 0.00 0.00 0.01 0.15 0.18 0.06 0.00 0.00 0.00 0.01 0.01 0.08 0.29 0.25 0.24 0.26 0.06 0.01 0.03 0.04 0.05 0.03 0.00 0.00 0.00 0.01 0.17 0.40
0.00 0.00 0.00 0.00 0.00 0.00 0.00 0.00 0.00 0.00 0.00 0.00 0.00 0.00 0.00 0.01 0.00 0.00 0.01 0.04 0.05 0.12 0.00 0.00 0.00 0.00 0.01 0.02 0.06 0.21 0.13 0.02 0.06 0.10 0.07 0.12 0.12 0.16 0.08 0.03 0.01 0.01 0.05 0.46 0.62
0.00 0.00 0.00 0.00 0.00 0.00 0.00 0.00 0.00 0.00 0.00 0.00 0.00 0.00 0.01 0.00 0.00 0.00 0.00 0.00 0.04 0.02 0.00 0.00 0.01 0.03 0.01 0.03 0.06 0.11 0.06 0.02 0.02 0.03 0.10 0.19 0.30 0.22 0.25 0.10 0.01 0.05 0.16 0.43 0.75
0.00 0.00 0.00 0.00 0.00 0.00 0.00 0.00 0.00 0.00 0.00 0.00 0.00 0.00 0.00 0.00 0.00 0.00 0.00 0.00 0.00 0.00 0.00 0.00 0.00 0.07 0.07 0.04 0.03 0.11 0.04 0.04 0.04 0.08 0.15 0.16 0.38 0.29 0.26 0.21 0.05 0.10 0.24 0.39 0.81
0.00 0.00 0.00 0.00 0.00 0.00 0.00 0.00 0.00 0.00 0.00 0.00 0.00 0.00 0.00 0.00 0.00 0.00 0.00 0.00 0.00 0.00 0.00 0.00 0.02 0.04 0.14 0.08 0.07 0.06 0.02 0.08 0.08 0.13 0.19 0.23 0.26 0.55 0.39 0.24 0.06 0.10 0.23 0.36 0.80
0.00 0.00 0.00 0.00 0.00 0.00 0.00 0.00 0.00 0.00 0.00 0.00 0.00 0.00 0.00 0.00 0.00 0.00 0.00 0.00 0.00 0.00 0.00 0.00 0.04 0.05 0.09 0.15 0.16 0.05 0.02 0.01 0.04 0.09 0.15 0.31 0.23 0.51 0.52 0.42 0.08 0.05 0.16 0.30 0.52
0.00 0.00 0.00 0.00 0.00 0.00 0.00 0.00 0.00 0.00 0.00 0.00 0.00 0.00 0.00 0.00 0.00 0.00 0.00 0.00 0.00 0.00 0.00 0.01 0.02 0.02 0.02 0.13 0.12 0.02 0.04 0.02 0.00 0.01 0.05 0.21 0.26 0.29 0.41 0.70 0.23 0.02 0.10 0.21 0.40
0.00 0.00 0.00 0.00 0.00 0.00 0.00 0.00 0.00 0.00 0.00 0.00 0.00 0.00 0.00 0.00 0.00 0.00 0.00 0.00 0.00 0.00 0.01 0.04 0.01 0.00 0.01 0.02 0.03 0.02 0.06 0.08 0.01 0.01 0.04 0.14 0.10 0.05 0.27 0.76 0.57 0.07 0.08 0.17 0.26
0.00 0.00 0.00 0.00 0.00 0.00 0.00 0.00 0.00 0.00 0.00 0.00 0.00 0.00 0.00 0.00 0.00 0.00 0.00 0.00 0.00 0.00 0.02 0.01 0.01 0.01 0.01 0.01 0.01 0.02 0.05 0.02 0.02 0.00 0.07 0.07 0.05 0.07 0.15 0.53 0.80 0.28 0.08 0.16 0.24
0.00 0.00 0.00 0.00 0.00 0.00 0.00 0.00 0.00 0.00 0.00 0.00 0.00 0.00 0.00 0.00 0.00 0.00 0.00 0.00 0.00 0.00 0.00 0.01 0.00 0.00 0.00 0.07 0.03 0.00 0.04 0.05 0.04 0.04 0.02 0.08 0.04 0.09 0.10 0.23 0.62 0.56 0.15 0.13 0.26
0.00 0.00 0.00 0.00 0.00 0.00 0.00 0.00 0.00 0.00 0.00 0.00 0.00 0.00 0.00 0.00 0.00 0.00 0.00 0.00 0.00 0.00 0.00 0.00 0.01 0.01 0.00 0.02 0.05 0.00 0.01 0.05 0.03 0.02 0.00 0.02 0.04 0.07 0.10 0.18 0.47 0.67 0.34 0.13 0.35
0.00 0.00 0.00 0.00 0.00 0.00 0.00 0.00 0.00 0.00 0.00 0.00 0.00 0.00 0.00 0.00 0.00 0.00 0.00 0.00 0.00 0.00 0.00 0.00 0.00 0.00 0.00 0.00 0.00 0.00 0.00 0.00 0.00 0.00 0.00 0.01 0.01 0.03 0.07 0.08 0.27 0.49 0.56 0.24 0.30
0.00 0.00 0.00 0.00 0.00 0.00 0.00 0.00 0.00 0.00 0.00 0.00 0.00 0.00 0.00 0.00 0.00 0.00 0.00 0.00 0.00 0.00 0.00 0.00 0.00 0.00 0.00 0.02 0.04 0.01 0.00 0.00 0.00 0.00 0.00 0.01 0.00 0.03 0.05 0.05 0.10 0.27 0.58 0.37 0.31
0.00 0.00 0.00 0.00 0.00 0.00 0.00 0.00 0.00 0.00 0.00 0.00 0.00 0.00 0.00 0.00 0.00 0.00 0.00 0.00 0.00 0.00 0.00 0.00 0.00 0.00 0.00 0.00 0.03 0.02 0.01 0.00 0.00 0.02 0.03 0.01 0.01 0.00 0.01 0.01 0.02 0.10 0.29 0.36 0.21
0.00 0.00 0.00 0.00 0.00 0.00 0.00 0.00 0.00 0.00 0.00 0.00 0.00 0.00 0.00 0.00 0.00 0.00 0.00 0.00 0.00 0.00 0.00 0.00 0.00 0.00 0.00 0.00 0.00 0.00 0.06 0.03 0.00 0.00 0.02 0.01 0.01 0.00 0.00 0.01 0.01 0.03 0.09 0.24 0.19
0.00 0.00 0.00 0.00 0.00 0.00 0.00 0.00 0.00 0.00 0.00 0.00 0.00 0.00 0.00 0.00 0.00 0.00 0.00 0.00 0.00 0.00 0.00 0.00 0.00 0.00 0.00 0.00 0.00 0.04 0.14 0.07 0.02 0.01 0.04 0.01 0.00 0.00 0.00 0.00 0.02 0.02 0.04 0.07 0.15
0.00 0.00 0.00 0.00 0.00 0.00 0.00 0.00 0.00 0.00 0.00 0.00 0.00 0.00 0.00 0.00 0.00 0.00 0.00 0.00 0.00 0.00 0.00 0.00 0.00 0.00 0.00 0.00 0.02 0.06 0.13 0.10 0.04 0.06 0.04 0.06 0.03 0.00 0.00 0.00 0.00 0.01 0.01 0.01 0.07
0.00 0.00 0.00 0.00 0.00 0.00 0.00 0.00 0.00 0.00 0.00 0.00 0.00 0.00 0.00 0.00 0.00 0.00 0.00 0.01 0.00 0.00 0.00 0.00 0.00 0.00 0.00 0.00 0.00 0.07 0.18 0.05 0.01 0.02 0.01 0.02 0.02 0.00 0.00 0.00 0.00 0.00 0.00 0.00 0.01
0.00 0.00 0.00 0.00 0.00 0.00 0.00 0.00 0.00 0.00 0.00 0.00 0.00 0.00 0.00 0.00 0.00 0.00 0.00 0.02 0.01 0.00 0.00 0.00 0.00 0.00 0.00 0.00 0.00 0.00 0.05 0.17 0.03 0.00 0.01 0.02 0.01 0.00 0.00 0.00 0.00 0.00 0.00 0.00 0.00
0.00 0.00 0.00 0.00 0.00 0.00 0.00 0.00 0.00 0.00 0.00 0.00 0.00 0.00 0.00 0.00 0.00 0.00 0.00 0.01 0.00 0.00 0.00 0.01 0.04 0.01 0.03 0.01 0.00 0.00 0.01 0.12 0.05 0.01 0.00 0.01 0.06 0.00 0.00 0.00 0.00 0.00 0.01 0.01 0.00
0.00 0.00 0.00 0.00 0.00 0.00 0.00 0.00 0.00 0.00 0.00 0.00 0.00 0.00 0.00 0.00 0.00 0.00 0.00 0.00 0.00 0.00 0.00 0.01 0.06 0.01 0.02 0.04 0.01 0.00 0.01 0.06 0.07 0.04 0.01 0.01 0.06 0.01 0.00 0.00 0.00 0.00 0.00 0.00 0.00
0.00 0.00 0.00 0.00 0.00 0.00 0.00 0.00 0.00 0.00 0.00 0.00 0.00 0.00 0.00 0.00 0.00 0.00 0.00 0.00 0.00 0.00 0.00 0.01 0.06 0.03 0.08 0.07 0.02 0.02 0.03 0.06 0.12 0.05 0.05 0.01 0.02 0.01 0.00 0.00 0.00 0.00 0.00 0.00 0.00
0.00 0.00 0.00 0.00 0.00 0.00 0.00 0.00 0.00 0.00 0.00 0.00 0.00 0.00 0.00 0.00 0.00 0.00 0.00 0.00 0.00 0.00 0.01 0.01 0.02 0.01 0.07 0.29 0.07 0.01 0.01 0.06 0.12 0.13 0.10 0.03 0.02 0.00 0.00 0.00 0.00 0.00 0.00 0.00 0.01
0.00 0.00 0.00 0.00 0.00 0.00 0.00 0.00 0.00 0.00 0.00 0.00 0.00 0.00 0.00 0.00 0.00 0.00 0.00 0.00 0.00 0.00 0.01 0.00 0.01 0.04 0.04 0.05 0.10 0.01 0.02 0.03 0.08 0.10 0.22 0.08 0.03 0.00 0.00 0.01 0.02 0.02 0.02 0.06 0.07
0.00 0.00 0.00 0.00 0.00 0.00 0.00 0.00 0.00 0.00 0.00 0.00 0.00 0.00 0.00 0.00 0.00 0.00 0.00 0.00 0.00 0.00 0.00 0.01 0.01 0.00 0.01 0.06 0.10 0.06 0.02 0.01 0.02 0.09 0.21 0.13 0.16 0.04 0.04 0.01 0.01 0.06 0.06 0.09 0.11
0.00 0.00 0.00 0.00 0.00 0.00 0.00 0.00 0.00 0.00 0.00 0.00 0.00 0.00 0.00 0.00 0.00 0.00 0.00 0.00 0.00 0.00 0.00 0.01 0.01 0.01 0.02 0.09 0.10 0.07 0.03 0.05 0.08 0.06 0.07 0.11 0.16 0.10 0.08 0.01 0.01 0.10 0.11 0.10 0.09
0.00 0.00 0.00 0.00 0.00 0.00 0.00 0.00 0.00 0.00 0.00 0.00 0.00 0.00 0.00 0.00 0.00 0.00 0.00 0.00 0.00 0.04 0.02 0.00 0.04 0.02 0.00 0.04 0.23 0.08 0.13 0.15 0.08 0.10 0.07 0.08 0.11 0.08 0.07 0.02 0.02 0.11 0.19 0.07 0.06